TimeCST,TemperatureF,Dew PointF,Humidity,Sea Level PressureIn,VisibilityMPH,Wind Direction,Wind SpeedMPH,Gust SpeedMPH,PrecipitationIn,Events,Conditions,WindDirDegrees,DateUTC
12:32 AM,12.0,8.1,84,29.45,2.0,South,17.3,-,0.00,Snow,Light Snow,180,2014-01-16 06:32:00
12:36 AM,12.0,8.1,84,29.45,0.8,South,15.0,21.9,0.00,Snow,Light Snow,170,2014-01-16 06:36:00
12:50 AM,12.2,8.6,85,29.44,1.5,South,13.8,-,0.00,Snow,Light Snow,180,2014-01-16 06:50:00
12:54 AM,12.0,9.0,88,29.53,1.5,South,13.8,-,0.00,Snow,Light Snow,180,2014-01-16 06:54:00
1:24 AM,12.9,10.0,88,29.43,2.0,South,16.1,-,0.00,Snow,Light Snow,180,2014-01-16 07:24:00
1:36 AM,12.9,10.9,92,29.43,1.5,South,11.5,-,0.00,Snow,Light Snow,180,2014-01-16 07:36:00
1:43 AM,14.0,10.0,84,29.43,3.0,South,11.5,-,0.00,Snow,Light Snow,180,2014-01-16 07:43:00
1:54 AM,14.0,10.9,88,29.51,6.0,South,10.4,-,0.00,,Overcast,180,2014-01-16 07:54:00
2:35 AM,16.0,12.0,84,29.40,9.0,South,12.7,-,0.00,,Overcast,190,2014-01-16 08:35:00
2:54 AM,16.0,12.9,88,29.47,10.0,South,10.4,-,0.00,,Overcast,190,2014-01-16 08:54:00
3:54 AM,18.0,14.0,84,29.44,10.0,South,15.0,-,N/A,,Overcast,190,2014-01-16 09:54:00
4:54 AM,19.0,14.0,81,29.43,10.0,South,8.1,-,N/A,,Overcast,190,2014-01-16 10:54:00
5:54 AM,19.9,15.1,81,29.42,10.0,South,6.9,-,N/A,,Overcast,190,2014-01-16 11:54:00
6:54 AM,19.9,16.0,85,29.41,10.0,SSW,9.2,-,N/A,,Overcast,200,2014-01-16 12:54:00
7:54 AM,21.0,17.1,85,29.40,10.0,SSW,9.2,-,N/A,,Overcast,210,2014-01-16 13:54:00
8:54 AM,21.9,18.0,85,29.42,10.0,South,8.1,-,N/A,,Overcast,180,2014-01-16 14:54:00
9:54 AM,23.0,19.0,85,29.42,6.0,South,9.2,-,0.00,Snow,Light Snow,190,2014-01-16 15:54:00
10:01 AM,23.0,19.0,85,29.34,6.0,South,9.2,-,0.00,Snow,Light Snow,190,2014-01-16 16:01:00
10:36 AM,24.1,19.9,84,29.35,6.0,South,6.9,-,0.00,Snow,Light Snow,190,2014-01-16 16:36:00
10:54 AM,24.1,21.0,88,29.42,9.0,South,9.2,-,0.00,,Overcast,190,2014-01-16 16:54:00
11:15 AM,24.1,21.0,88,29.33,10.0,SSW,6.9,-,N/A,,Overcast,200,2014-01-16 17:15:00
11:54 AM,25.0,21.9,88,29.39,10.0,SSW,5.8,-,N/A,,Overcast,210,2014-01-16 17:54:00
12:44 PM,26.1,23.0,88,29.32,9.0,Calm,Calm,-,N/A,,Overcast,0,2014-01-16 18:44:00
12:54 PM,26.1,23.0,88,29.39,10.0,Calm,Calm,-,N/A,,Overcast,0,2014-01-16 18:54:00
1:42 PM,27.0,24.1,89,29.33,2.5,West,3.5,-,N/A,,Overcast,270,2014-01-16 19:42:00
1:54 PM,27.0,25.0,92,29.40,1.8,WNW,4.6,-,0.00,,Overcast,290,2014-01-16 19:54:00
2:03 PM,27.0,26.1,96,29.34,2.0,West,5.8,-,0.00,Rain,Light Freezing Rain,280,2014-01-16 20:03:00
2:14 PM,27.0,26.1,96,29.34,2.0,West,6.9,-,0.00,Snow,Light Snow,280,2014-01-16 20:14:00
2:23 PM,28.0,26.1,92,29.34,1.2,WNW,5.8,-,0.00,Snow,Light Snow,300,2014-01-16 20:23:00
2:36 PM,28.0,25.0,88,29.35,2.5,NW,10.4,-,0.01,Snow,Light Snow,310,2014-01-16 20:36:00
2:43 PM,28.0,25.0,88,29.35,4.0,WNW,10.4,-,0.01,Snow,Light Snow,300,2014-01-16 20:43:00
2:54 PM,28.0,24.1,85,29.43,6.0,NW,11.5,-,0.01,Snow,Light Snow,310,2014-01-16 20:54:00
3:16 PM,25.0,21.9,88,29.38,2.5,WNW,11.5,-,0.00,Snow,Light Snow,290,2014-01-16 21:16:00
3:25 PM,25.0,21.0,85,29.38,1.2,West,16.1,-,0.00,Snow,Light Snow,280,2014-01-16 21:25:00
3:43 PM,24.1,19.9,84,29.39,3.0,WNW,15.0,-,0.00,Snow,Light Snow,290,2014-01-16 21:43:00
3:54 PM,24.1,19.9,84,29.47,6.0,WNW,11.5,-,0.00,Snow,Light Snow,300,2014-01-16 21:54:00
4:29 PM,21.0,15.1,78,29.44,10.0,NW,18.4,-,0.00,,Overcast,310,2014-01-16 22:29:00
4:54 PM,19.0,14.0,81,29.53,8.0,NW,16.1,29.9,0.00,Snow,Light Snow,320,2014-01-16 22:54:00
5:05 PM,18.0,12.9,81,29.47,1.8,NW,18.4,27.6,0.00,Snow,Light Snow,310,2014-01-16 23:05:00
5:21 PM,17.1,14.0,88,29.49,0.8,NW,12.7,-,0.00,Snow,Light Snow,310,2014-01-16 23:21:00
5:42 PM,16.0,12.0,84,29.50,0.8,NW,15.0,23.0,0.01,Snow,Light Snow,320,2014-01-16 23:42:00
5:54 PM,16.0,10.9,81,29.59,1.2,NW,12.7,23.0,0.01,Snow,Light Snow,310,2014-01-16 23:54:00
6:14 PM,15.1,10.9,84,29.53,1.5,WNW,13.8,-,0.00,Snow,Light Snow,300,2014-01-17 00:14:00
6:33 PM,14.0,9.0,80,29.54,2.0,NW,13.8,21.9,0.00,Snow,Light Snow,310,2014-01-17 00:33:00
6:54 PM,14.0,9.0,80,29.62,2.5,NW,12.7,23.0,0.00,Snow,Light Snow,320,2014-01-17 00:54:00
7:09 PM,12.9,8.1,81,29.55,3.0,NW,13.8,25.3,0.00,Snow,Light Snow,320,2014-01-17 01:09:00
7:54 PM,10.9,6.1,81,29.65,8.0,NW,12.7,-,0.00,Snow,Light Snow,320,2014-01-17 01:54:00
8:39 PM,10.0,3.9,76,29.59,2.5,NNW,11.5,21.9,0.00,Snow,Light Snow,330,2014-01-17 02:39:00
8:54 PM,10.0,5.0,80,29.68,3.0,NW,12.7,-,0.00,Snow,Light Snow,310,2014-01-17 02:54:00
9:54 PM,9.0,3.9,80,29.69,8.0,NW,11.5,-,0.00,Snow,Light Snow,320,2014-01-17 03:54:00
10:54 PM,8.1,3.9,83,29.70,4.0,NW,11.5,-,0.00,Snow,Light Snow,310,2014-01-17 04:54:00
11:20 PM,8.1,3.9,83,29.62,4.0,NW,9.2,-,0.00,Snow,Light Snow,310,2014-01-17 05:20:00
11:54 PM,9.0,3.9,80,29.69,5.0,NW,9.2,-,0.00,Snow,Light Snow,310,2014-01-17 05:54:00